Regional Weather Roundup
Issued by NWS

Home | Current Version | Previous Version | Text Only | Print | Product List | Glossary On
Versions: 1 2 3 4 5 6 7 8 9 10 11 12 13 14 15 16 17 18 19 20 21 22 23 24 25 26 27
000
ASUS42 KTBW 260716
RWRFL
FLORIDA REGIONAL WEATHER ROUNDUP
NATIONAL WEATHER SERVICE TAMPA BAY RUSKIN FL
200 AM EST SUN FEB 26 2017

NOTE: "FAIR" INDICATES FEW OR NO CLOUDS BELOW 12,000 FEET WITH NO
SIGNIFICANT WEATHER AND/OR OBSTRUCTIONS TO VISIBILITY.

FLZ001>010-012>015-112-114-115-260800-
PANHANDLE FLORIDA

CITY           SKY/WX    TMP DP  RH WIND       PRES   REMARKS
PENSACOLA      CLEAR     52  30  43 N10       30.12R
PENSACOLA NAS  CLEAR     51  28  41 N7        30.11S
MILTON NAS     LGT RAIN  45  27  49 N3        30.13
CRESTVIEW      CLEAR     42  29  59 CALM      30.14R
DUKE FIELD     FAIR      45  26  46 N6        30.11R WCI  42
VALPARAISO     CLEAR     50  24  37 N10       30.12R
MARY ESTHER    CLEAR     48  22  36 N9        30.10R WCI  44
TRI COUNTY     FAIR      50  28  42 NW6       30.13R
PANAMA CITY    FAIR      50  30  46 N9        30.10R
TYNDALL AFB    CLEAR     54  29  39 N12       30.10R
APALACHICOLA   CLEAR     57  30  35 N14       30.08R

STATION/POSITION SKY/WX   TEMP    WIND        PRES    WAVE   SWELL
                          AIR SEA DIR/SP/G            HT/PER HT/PER
                          (F)     (DEG/KT/KT) (MB)    (FT/S) (FT/S)
30.1N   87.6W              58 68   30/ 19/ 23 1019.2S   4/ 4
28.8N   86.0W              67 71              1018.1R   4/ 5
PANAMA CITY BEAC           53      20/ 10/ 13 1019.4R
TOWER C                    61      10/ 22/ 23 1018.5R
28.5N   84.5W              68 70   10/ 19/ 23 1017.0R   4/ 6

$$
FLZ011-016>038-118-127-128-134-139-239-260800-
NORTH FLORIDA

CITY           SKY/WX    TMP DP  RH WIND       PRES   REMARKS
MARIANNA       CLEAR     50  30  46 N5        30.11R
TALLAHASSEE    PTCLDY    55  27  34 N6        30.09R
PERRY          CLEAR     54  29  38 N6        30.08R
CROSS CITY     CLEAR     54  34  47 N6        30.07R
LAKE CITY      FAIR      55  30  38 N9        30.06R
GAINESVILLE    CLEAR     58  47  66 N9        30.06R
WILLISTON      CLEAR     59  48  67 NW7       30.06R
PALATKA        FAIR      57  52  82 NW7       30.05R
MAYPORT NAS    CLEAR     58  36  43 NW6       30.04R
JACKSONVILLE   CLEAR     55  30  38 NW7       30.04R
JAX NAS        CLEAR     62  27  26 NW12      30.05R
FERNANDINA BEA FAIR      61  36  39 NW9       30.03R
ST AUGUSTINE   PTCLDY    60  34  37 NW10      30.05R

STATION/POSITION SKY/WX   TEMP    WIND        PRES    WAVE   SWELL
                          AIR SEA DIR/SP/G            HT/PER HT/PER
                          (F)     (DEG/KT/KT) (MB)    (FT/S) (FT/S)
SHELL POINT      NOT AVBL
KEATON BEACH               56     360/  4/  7 1018.0R
CEDAR KEY                  62     360/  8/ 11 1018.0R
FERNANDINA                 60 69  320/  7/ 10 1017.8R
30.7N   81.3W                 65                N/A     3/10   2/11
MAYPORT                    59 68  330/  7/ 10 1017.3R
31.4N   80.9W              62 62  310/ 17/ 19 1016.2R   4/10   3/10
ST AUGUSTINE               62 66  320/  8/ 10 1017.8R

$$
FLZ040-043>046-052-053-057-058-063-144-260800-
INTERIOR CENTRAL FLORIDA

CITY           SKY/WX    TMP DP  RH WIND       PRES   REMARKS
OCALA          CLEAR     59  55  88 N8        30.04S
THE VILLAGES     N/A     63  63 100 MISG      29.94R
LEESBURG       MOCLDY    64  62  93 NW12      30.03R
SANFORD        CLEAR     63  61  93 W7        30.01R
ORLANDO EXEC   CLEAR     66  63  90 W7        30.01S
ORLANDO INTL   PTCLDY    65  62  90 W6        30.02R
KISSIMMEE      PTCLDY    63  62  97 W3        30.03S
WINTER HAVEN   PTCLDY    65  62  90 W3        30.03S
LAKELAND       FOG       61  61 100 CALM      30.03S VSB<1/4
BARTOW         FAIR      63  63 100 W3        30.03S
OKEECHOBEE     CLEAR     59  57  94 NW5       30.01S

$$
FLZ041-047-054-059-064-141-147-260800-
EAST CENTRAL FLORIDA

CITY           SKY/WX    TMP DP  RH WIND       PRES   REMARKS
DAYTONA BEACH  PTCLDY    63  63 100 W5        30.01R
DELAND         PTCLDY    63  63 100 NW7       30.01R
JFK SPACE CTR  CLEAR     65  65  99 NW3       30.00R
CAPE CANAVERAL CLEAR     67  64  90 NW10      29.99S
PATRICK AFB    CLEAR     68  65  92 NW15      30.00R
MELBOURNE      CLEAR     64  63  96 NW10      30.00R
VERO BEACH     CLEAR     62  59  90 N5        30.01R
FT PIERCE      PTCLDY    59  58  96 CALM      30.00S
STUART         PTCLDY    70  61  73 NW7       30.01R

STATION/POSITION SKY/WX   TEMP    WIND        PRES    WAVE   SWELL
                          AIR SEA DIR/SP/G            HT/PER HT/PER
                          (F)     (DEG/KT/KT) (MB)    (FT/S) (FT/S)
TRIDENT PIER               68 72  290/  9/ 12 1017.1R
28.4N   80.5W                 72                N/A     2/10   2/11
27.5N   80.2W                 72                N/A     3/11   2/11

$$
FLZ050-056-061-142-242-148-248-149-249-151-251-155-255-
160-260-260800-
WEST CENTRAL FLORIDA

CITY           SKY/WX    TMP DP  RH WIND       PRES   REMARKS
CRYSTAL RIVER  FAIR      63  55  77 N8        30.05R
INVERNESS      FAIR      61  61 100 N8        30.04R FOG
BROOKSVILLE    CLOUDY    57  57 100 CALM      30.04S FOG
CLEARWATER AIR FAIR      64  61  88 NW3       30.03S
ST PETE CLEARW CLEAR     65  61  87 NW7       30.03S
TAMPA INTL     PTCLDY    67  63  87 NW3       30.03S
TAMPA EXEC     MOCLDY    59  55  88 CALM      30.04S FOG
PLANT CITY     CLEAR     64  64 100 W3        30.04S
MACDILL AFB    CLEAR     66  66 100 NW7       30.03R
PETER O KNIGHT MOCLDY    70  68  94 NW3       30.03S
ST PETERSBURG  CLEAR     67  65  93 NW5       30.01S
SARASOTA       CLEAR     66  63  90 NW3       30.02R
VENICE         FAIR      70  68  94 NW6       30.03S

STATION/POSITION SKY/WX   TEMP    WIND        PRES    WAVE   SWELL
                          AIR SEA DIR/SP/G            HT/PER HT/PER
                          (F)     (DEG/KT/KT) (MB)    (FT/S) (FT/S)
27.3N   84.2W                 71                N/A     2/ 3
CLEARWATER BEACH           69     310/ 10/ 12 1016.9R
MIDDLE TAMPA BAY           68     340/  7/  8 1017.2R
VENICE                     70 71  300/  9/  9 1016.4R

$$
FLZ066-069-070-075>078-162-262-165-265-260800-
SOUTHWEST FLORIDA AND KEYS

CITY           SKY/WX    TMP DP  RH WIND       PRES   REMARKS
PUNTA GORDA    CLEAR     66  64  93 NW7       30.04R
FT MYERS         N/A    N/A N/A N/A MISG      30.01R
SOUTHWEST INTL CLEAR     66  63  90 NW3       30.01R
NAPLES         CLEAR     69  67  93 NW6       30.01R
MARCO ISLAND   PTCLDY    64  63  94 NW3       30.01S
MARATHON       CLEAR     73  67  81 N7        30.00S
KEY WEST NAS   CLEAR     69  64  84 N7        30.01S
KEY WEST INTL  CLEAR     71  66  84 N3        30.01S

STATION/POSITION SKY/WX   TEMP    WIND        PRES    WAVE   SWELL
                          AIR SEA DIR/SP/G            HT/PER HT/PER
                          (F)     (DEG/KT/KT) (MB)    (FT/S) (FT/S)
NAPLES                        74              1016.0R
26.0N   85.6W              73 75   20/ 14/ 16 1017.3S   2/ 4
DRY TORTUGAS               71      10/  2/  4 1016.3S
SAND KEY                   72                 1016.7S
LONG KEY                   72 76  360/  9/ 10 1016.2R

$$
FLZ067-068-071>074-168-172>174-260800-
SOUTHEAST FLORIDA

CITY           SKY/WX    TMP DP  RH WIND       PRES   REMARKS
W PALM BEACH   PTCLDY    66  59  78 NW8       29.99S
FT LAUDER-EXEC CLEAR     70  60  70 NW3       29.98F
FT LAUDERDALE  PTCLDY    68  61  78 NW5       29.98S
POMPANO BEACH  CLEAR     69  62  78 W6        29.98S
PEMBROKE PINES CLEAR     68  61  78 NW3       30.00S
OPA LOCKA      CLEAR     69  62  78 NW6       30.00S
MIAMI          PTCLDY    70  62  76 NW5       29.99F
WEST KENDALL   CLEAR     63  61  93 W5        29.99F
HOMESTEAD      CLEAR     65  65 100 W3        29.99S

STATION/POSITION SKY/WX   TEMP    WIND        PRES    WAVE   SWELL
                          AIR SEA DIR/SP/G            HT/PER HT/PER
                          (F)     (DEG/KT/KT) (MB)    (FT/S) (FT/S)
PORT EVERGLADES            70     290/  9/ 11 1015.3R
VIRGINIA KEY               72     340/  5/  7 1015.9F
LAKE WORTH                        310/  5/  8   N/A
FOWEY ROCKS                72 74  330/ 11/ 12 1016.1F
SETTLEMENT POINT           77     200/ 10/ 11 1014.9S

$$





USA.gov is the U.S. government's official web portal to all federal, state and local government web resources and services.